Location: West Cummington
(42.4920°N, 72.9680°W)
Time: 04:34:15
(UTC-04:00)

Cosmos 2221 - Visible Passes

Search period start: 24 August 2016 00:00
Search period end: 03 September 2016 00:00
Orbit: 595 x 616 km, 82.5° (Epoch: 23 August)

Date Brightness Start Highest point End Pass type
(mag) Time Alt. Az. Time Alt. Az. Time Alt. Az.
24 Aug 5.0 01:48:55 20° N 01:48:55 20° N 01:50:16 10° N visible
25 Aug 5.1 02:02:10 18° N 02:02:10 18° N 02:03:24 10° N visible
26 Aug 5.2 02:15:24 15° NNW 02:15:24 15° NNW 02:16:21 10° NNW visible
27 Aug 5.6 00:51:44 12° NNE 00:51:44 12° NNE 00:52:06 10° NNE visible
27 Aug 5.3 02:28:37 12° NNW 02:28:37 12° NNW 02:29:01 10° NNW visible
28 Aug 5.5 01:04:57 14° NNE 01:04:57 14° NNE 01:05:32 10° NNE visible
29 Aug 5.5 01:18:10 14° N 01:18:10 14° N 01:18:47 10° N visible
30 Aug 5.5 01:31:22 13° N 01:31:22 13° N 01:31:51 10° N visible
31 Aug 5.6 01:44:34 11° NNW 01:44:34 11° NNW 01:44:43 10° NNW visible
02 Sep 5.8 00:34:03 10° NNE 00:34:03 10° NNE 00:34:04 10° NNE visible
